Wind_Speed
89 89 81 87 81 76 72 68 62 56 54 55 52 50 48 51 46 45 45 45 49 52 53 52 51 50 49 52 53 59 58 68 77 79 79 72 66 64 64 77 82 82 83 78 74
77 85 82 81 84 80 75 72 66 61 58 56 53 51 48 52 52 53 45 45 47 49 52 54 50 49 48 50 50 50 55 67 76 80 79 74 68 65 66 65 82 82 80 78 75
68 80 80 76 80 80 77 74 71 63 59 57 54 52 46 51 53 57 50 49 50 51 49 53 54 51 50 52 51 52 50 57 69 78 81 77 72 69 68 67 68 76 76 75 75
62 78 79 76 74 77 77 73 68 62 59 58 53 50 48 50 51 56 55 50 49 51 51 50 52 54 54 51 52 48 52 56 64 71 78 81 77 73 70 72 69 65 71 71 74
58 72 80 78 71 71 73 71 70 63 61 57 56 53 54 54 53 49 56 52 48 49 52 52 51 53 53 50 51 50 56 58 63 66 72 80 79 77 73 75 69 68 64 68 70
54 65 76 78 73 70 69 69 69 66 62 61 59 60 61 59 57 54 57 61 55 50 51 53 56 51 50 51 51 53 57 60 66 70 69 74 80 77 79 80 72 68 64 62 66
50 59 72 73 69 72 71 66 69 68 66 61 62 62 67 66 63 59 61 67 61 58 56 53 52 52 51 53 52 52 54 60 64 72 74 72 73 79 86 83 76 70 66 60 61
46 56 65 68 69 65 67 67 70 70 67 66 63 62 67 66 63 58 56 64 60 61 62 56 52 52 51 53 53 53 54 56 60 66 77 74 66 75 84 86 78 74 68 63 59
41 51 60 68 70 71 69 65 67 69 68 66 70 68 68 70 65 60 63 63 58 62 63 60 55 53 53 53 54 52 52 55 55 60 67 78 71 73 79 86 81 77 72 65 61
42 43 53 63 69 75 78 75 77 75 70 70 70 71 70 70 70 68 67 71 65 62 65 63 57 54 55 57 54 50 52 56 56 58 63 74 76 77 77 84 82 79 72 68 63
51 45 46 50 60 70 78 79 77 74 73 73 70 71 68 71 71 73 74 73 69 64 65 66 60 57 62 64 61 57 51 49 53 57 63 60 72 79 80 82 80 80 74 69 66
58 54 51 48 50 53 60 67 73 80 78 78 78 79 78 75 76 78 76 75 74 72 69 68 63 65 66 65 64 61 53 49 56 61 61 63 61 77 80 79 77 80 75 72 67
64 62 58 54 49 51 54 55 55 57 63 71 76 80 86 87 88 89 84 80 83 75 74 74 70 70 70 70 68 64 58 59 62 70 66 64 63 70 75 84 77 79 76 73 67
64 66 65 60 55 55 54 51 50 52 53 55 60 66 73 79 80 90 87 82 75 74 76 72 74 75 74 73 75 67 67 69 69 71 66 73 65 69 75 83 79 76 74 74 68
60 64 63 66 61 59 56 54 52 52 47 47 55 66 68 70 71 77 79 79 78 79 79 77 76 79 76 80 81 70 76 73 73 72 75 69 62 60 68 79 81 73 74 74 69
64 62 63 64 66 60 55 52 52 52 46 49 56 60 62 63 65 68 71 76 77 78 78 80 79 83 85 87 83 82 81 78 77 79 71 66 61 49 61 66 83 76 73 75 68
71 68 66 65 68 60 59 56 51 49 51 52 54 55 56 57 59 62 70 75 78 81 82 83 87 86 87 86 83 85 87 85 81 74 52 67 56 42 59 68 81 74 75 76 67
72 77 73 71 66 64 60 57 53 54 54 51 52 50 48 51 54 63 67 74 78 82 81 81 81 81 83 82 82 86 88 81 69 62 63 72 41 45 66 75 77 75 75 75 63
72 71 77 77 71 65 59 53 54 54 48 50 46 38 41 47 57 61 66 71 71 73 67 58 54 54 50 50 56 59 53 66 62 58 61 52 47 62 76 68 71 71 70 70 62
59 69 71 80 77 69 59 59 53 48 44 44 34 32 40 48 55 58 60 58 48 40 36 31 32 32 30 30 29 35 45 38 38 44 44 45 57 64 64 60 69 69 74 71 62
55 63 65 70 73 61 61 58 46 40 39 32 25 30 40 46 48 41 30 27 21 16 14 13 13 11 14 20 26 27 30 37 51 52 49 50 54 62 62 65 71 73 74 67 61
46 54 48 42 52 52 55 42 37 34 32 23 22 29 37 37 27 23 18 12 8 5 5 5 11 17 20 22 29 39 52 57 56 55 54 55 64 64 67 73 74 69 70 64 56
45 41 37 40 44 47 44 37 33 36 25 17 20 26 27 20 21 10 6 12 21 29 25 25 33 40 40 43 47 50 55 61 66 60 56 60 57 64 64 68 66 67 65 59 53
44 34 31 38 45 45 38 38 41 31 21 15 15 19 9 5 12 49 47 54 53 46 52 53 54 58 62 58 65 61 57 44 57 49 54 56 57 63 66 64 66 66 62 56 53
37 30 38 40 45 43 44 46 38 28 21 15 12 13 12 8 20 41 46 56 61 55 49 57 59 50 56 58 46 41 35 34 35 39 35 58 59 66 67 66 66 65 59 56 54
36 42 47 47 44 52 52 45 34 26 19 16 13 8 15 28 16 48 43 49 53 51 55 60 61 57 47 53 49 39 33 31 28 37 48 58 61 63 62 66 65 60 56 54 53
38 46 48 49 56 56 49 39 33 30 22 17 15 9 15 17 21 31 39 44 43 49 49 47 53 53 44 42 44 36 37 33 21 29 52 55 61 62 65 65 60 55 53 51 49
Wind_Direction
253 249 243 241 245 249 253 257 259 263 267 271 274 273 276 272 267 265 266 273 269 267 262 260 262 262 259 254 245 246 243 240 238 238 236 236 239 240 239 237 236 238 238 241 242
245 239 238 239 242 245 249 254 256 261 265 265 268 271 276 271 271 267 266 270 274 268 266 264 264 266 266 261 252 246 244 241 238 239 238 238 237 240 241 239 237 239 239 241 242
241 232 233 236 239 243 246 250 256 258 260 261 266 271 272 269 270 274 274 278 277 271 266 264 263 263 266 265 258 251 247 244 243 238 239 237 233 236 241 239 238 238 238 240 242
237 230 230 234 238 240 245 248 253 256 257 258 262 265 267 268 269 275 278 276 278 278 271 269 267 265 266 266 259 251 250 248 246 241 237 237 233 232 237 241 237 238 238 237 241
232 229 231 233 234 238 243 247 251 253 254 258 256 260 264 270 272 273 275 276 274 274 274 271 270 269 269 269 264 255 249 246 246 244 239 236 234 231 234 240 237 238 239 238 236
234 230 228 233 236 237 241 245 247 250 252 256 254 258 265 267 275 268 275 277 275 271 278 272 267 271 273 272 268 260 256 246 242 243 241 237 233 232 231 235 237 237 238 239 239
234 234 230 232 238 239 241 246 247 249 251 254 258 260 263 271 272 270 268 273 274 274 275 278 270 269 272 274 272 273 262 249 240 239 239 237 234 230 230 231 235 235 236 238 238
238 235 234 235 231 240 243 247 249 249 252 253 254 256 262 269 270 267 268 268 271 275 278 280 275 270 273 275 276 278 263 251 245 239 236 235 231 232 230 231 231 234 235 236 241
247 238 238 235 237 239 239 241 246 247 251 253 253 260 261 270 266 265 268 273 272 273 275 279 277 272 273 276 281 282 259 249 241 239 236 233 227 233 231 231 229 230 233 235 240
252 249 240 239 239 240 243 245 248 250 250 250 251 253 265 265 264 265 269 270 271 273 272 275 274 275 277 276 281 266 246 240 235 235 235 232 224 228 230 230 227 228 230 233 237
250 247 248 246 242 242 240 243 245 246 247 249 251 252 257 259 261 262 267 268 269 271 269 271 272 274 273 272 277 281 260 242 234 234 239 235 227 226 230 230 225 226 226 230 235
246 247 244 244 248 248 246 245 248 245 248 252 252 257 257 256 259 262 263 265 266 268 268 270 270 269 271 275 277 280 254 244 241 244 245 241 232 224 227 231 225 225 223 228 232
244 244 244 243 243 247 248 250 251 251 252 256 258 258 260 257 258 260 261 263 267 268 266 265 268 272 272 273 274 276 256 246 245 245 238 238 231 227 226 228 223 223 222 226 230
245 245 244 245 244 245 247 249 249 253 251 254 259 261 260 259 257 257 260 263 263 264 261 263 267 267 270 273 275 273 256 248 247 246 241 240 230 228 228 226 222 220 220 223 227
242 243 244 245 248 248 249 250 252 255 260 256 259 264 266 264 259 257 258 260 262 259 259 262 265 267 268 269 270 265 255 250 248 245 244 247 239 234 231 225 224 220 216 220 224
245 242 240 243 245 246 248 251 255 258 265 261 266 268 267 261 259 261 262 262 263 263 265 266 266 268 268 268 268 260 254 251 248 246 245 249 243 229 234 225 223 218 213 218 220
244 245 242 241 243 245 247 251 254 262 263 267 273 268 262 260 260 262 263 265 265 266 267 266 269 267 267 264 260 257 254 254 252 253 247 245 239 224 230 221 219 214 211 214 216
241 241 243 242 245 246 248 250 255 260 266 271 271 263 259 262 265 263 264 266 268 271 273 272 271 268 263 262 257 253 251 250 248 242 237 238 215 208 223 217 213 210 209 214 212
235 237 239 241 243 245 246 248 253 262 266 270 261 255 260 266 268 269 273 279 280 280 278 275 269 264 263 255 251 249 248 240 232 223 221 221 200 204 215 209 204 206 208 209 211
228 229 229 234 240 242 244 249 253 262 262 258 250 257 268 275 282 290 291 288 287 279 277 268 259 253 247 241 235 226 223 220 205 200 200 192 194 198 208 198 197 199 204 205 209
222 225 226 225 232 237 243 248 252 252 249 237 250 268 281 292 307 299 285 288 275 270 254 242 242 238 221 213 208 197 181 176 177 176 179 179 180 187 194 191 192 197 199 203 208
222 219 225 219 227 231 236 235 233 233 217 230 257 278 291 313 309 325 318 286 262 218 69 105 130 138 147 165 174 176 164 159 154 161 162 168 174 185 189 189 192 194 196 202 207
220 222 216 206 206 212 214 210 209 201 206 229 263 286 308 317 326 331 38 94 101 102 110 122 122 120 124 132 139 153 156 154 149 153 157 169 174 188 193 185 189 191 197 203 206
215 204 197 195 198 200 191 186 187 190 200 223 266 299 139 182 100 102 103 103 103 109 111 112 116 123 123 127 136 138 136 140 155 152 168 170 183 188 187 186 188 192 198 202 208
205 179 185 186 190 183 175 178 181 182 193 212 241 151 142 154 145 125 121 113 114 113 114 114 113 115 118 112 113 123 121 136 152 160 171 183 185 187 184 186 188 194 198 203 210
185 181 181 187 175 169 172 175 175 180 191 205 217 191 167 155 162 141 141 130 131 133 134 131 126 122 124 129 123 130 142 151 167 185 187 186 187 188 186 186 192 197 202 208 214
181 184 181 171 167 171 171 168 175 182 186 203 208 174 187 214 183 165 151 147 147 145 138 138 142 131 135 137 144 140 133 155 158 189 191 188 191 185 188 190 196 202 207 213 218
Height
10619 10625 10634 10643 10650 10656 10661 10666 10672 10674 10676 10677 10679 10681 10680 10681 10682 10680 10683 10684 10684 10684 10687 10689 10689 10693 10696 10695 10702 10705 10716 10715 10715 10717 10718 10733 10741 10747 10752 10759 10762 10765 10778 10785 10793
10595 10604 10616 10626 10634 10642 10648 10652 10658 10662 10664 10665 10668 10668 10670 10670 10669 10663 10675 10674 10674 10674 10676 10678 10681 10682 10684 10683 10691 10695 10700 10700 10700 10704 10712 10724 10733 10738 10740 10747 10748 10755 10767 10778 10782
10577 10586 10598 10610 10619 10626 10633 10638 10644 10649 10651 10652 10654 10657 10659 10658 10657 10652 10660 10663 10661 10661 10663 10664 10669 10672 10671 10672 10676 10680 10689 10688 10688 10694 10699 10710 10724 10726 10727 10733 10736 10746 10755 10766 10769
10563 10573 10583 10594 10604 10611 10618 10625 10630 10635 10638 10639 10641 10645 10645 10644 10647 10642 10645 10649 10651 10648 10651 10652 10655 10658 10659 10660 10659 10670 10672 10675 10672 10678 10685 10692 10705 10715 10714 10713 10724 10732 10740 10756 10759
10550 10560 10571 10580 10589 10597 10604 10610 10616 10621 10625 10628 10629 10630 10631 10632 10636 10637 10632 10633 10638 10640 10639 10640 10641 10643 10645 10647 10648 10656 10655 10659 10657 10661 10669 10676 10691 10698 10705 10698 10711 10721 10731 10740 10748
10539 10547 10557 10566 10576 10583 10589 10595 10601 10606 10611 10615 10616 10616 10616 10617 10625 10627 10620 10617 10622 10626 10628 10628 10626 10631 10633 10632 10632 10636 10639 10643 10645 10645 10653 10661 10673 10686 10687 10683 10700 10709 10718 10727 10737
10528 10535 10544 10553 10563 10570 10576 10580 10586 10591 10597 10600 10603 10602 10602 10605 10608 10610 10611 10605 10608 10610 10613 10614 10615 10617 10617 10616 10617 10620 10621 10622 10628 10628 10636 10645 10662 10671 10664 10672 10686 10697 10707 10716 10721
10517 10522 10531 10539 10547 10555 10561 10566 10572 10576 10581 10586 10589 10589 10585 10587 10593 10596 10597 10592 10596 10598 10595 10598 10599 10602 10602 10601 10603 10604 10604 10608 10610 10614 10618 10629 10653 10650 10654 10660 10677 10686 10694 10704 10710
10508 10510 10517 10525 10532 10539 10545 10549 10554 10560 10566 10571 10575 10575 10571 10571 10575 10580 10583 10580 10581 10582 10582 10582 10583 10585 10586 10588 10588 10589 10591 10594 10596 10596 10600 10612 10632 10633 10640 10646 10663 10672 10683 10693 10698
10496 10499 10503 10509 10516 10523 10529 10533 10538 10544 10551 10554 10559 10558 10558 10556 10557 10561 10565 10565 10568 10567 10567 10564 10568 10570 10571 10568 10573 10572 10573 10577 10582 10578 10582 10592 10613 10614 10621 10629 10648 10660 10673 10681 10687
10484 10488 10491 10495 10500 10506 10512 10516 10521 10528 10536 10538 10542 10542 10541 10542 10542 10543 10544 10546 10550 10552 10550 10548 10555 10556 10549 10549 10556 10561 10566 10569 10567 10567 10568 10582 10595 10604 10606 10616 10637 10647 10661 10669 10676
10470 10475 10478 10483 10489 10493 10497 10500 10504 10516 10520 10521 10524 10527 10524 10529 10527 10521 10527 10529 10531 10534 10534 10532 10537 10533 10532 10536 10541 10546 10552 10557 10552 10550 10556 10566 10581 10589 10596 10606 10624 10632 10650 10657 10665
10453 10459 10465 10471 10477 10479 10484 10488 10494 10500 10504 10506 10506 10509 10502 10510 10510 10501 10506 10510 10511 10516 10513 10513 10516 10514 10515 10517 10521 10528 10535 10533 10535 10528 10543 10546 10565 10574 10582 10586 10606 10620 10638 10647 10656
10435 10441 10449 10457 10464 10466 10471 10477 10483 10486 10492 10495 10490 10487 10484 10484 10493 10484 10486 10489 10494 10493 10492 10496 10495 10492 10495 10500 10499 10513 10508 10508 10511 10514 10530 10523 10550 10558 10562 10575 10592 10609 10627 10636 10647
10417 10424 10435 10441 10450 10453 10459 10464 10470 10472 10480 10484 10480 10471 10468 10468 10468 10465 10468 10469 10472 10472 10473 10473 10474 10471 10480 10475 10478 10493 10481 10488 10493 10502 10502 10516 10533 10556 10554 10569 10586 10602 10616 10626 10638
10399 10409 10419 10428 10430 10439 10446 10453 10457 10460 10466 10468 10463 10460 10455 10450 10451 10450 10451 10450 10450 10449 10450 10447 10451 10448 10449 10449 10456 10454 10458 10464 10470 10474 10493 10513 10517 10547 10547 10562 10569 10585 10606 10614 10628
10377 10391 10401 10409 10415 10427 10434 10440 10446 10451 10451 10454 10451 10447 10441 10437 10439 10440 10435 10431 10430 10426 10425 10425 10422 10423 10417 10420 10427 10426 10432 10436 10447 10462 10497 10489 10503 10540 10529 10539 10553 10577 10591 10602 10618
10360 10364 10383 10391 10402 10411 10421 10430 10438 10438 10438 10443 10439 10433 10429 10429 10429 10423 10422 10415 10410 10402 10398 10393 10393 10388 10386 10387 10389 10393 10402 10415 10430 10447 10458 10457 10501 10519 10510 10516 10541 10564 10579 10595 10610
10336 10346 10364 10373 10384 10396 10408 10420 10421 10427 10430 10430 10427 10425 10423 10423 10416 10411 10405 10397 10387 10376 10366 10364 10362 10357 10361 10361 10363 10373 10387 10391 10401 10419 10428 10455 10481 10484 10488 10514 10536 10559 10578 10591 10604
10315 10326 10340 10355 10365 10382 10397 10404 10412 10419 10421 10420 10418 10420 10418 10413 10405 10397 10386 10372 10362 10355 10349 10348 10345 10343 10344 10348 10353 10358 10362 10383 10402 10418 10434 10448 10461 10479 10493 10513 10531 10550 10564 10578 10594
10298 10307 10319 10337 10352 10371 10386 10392 10405 10410 10412 10412 10414 10415 10410 10405 10397 10379 10366 10358 10351 10346 10341 10338 10336 10337 10339 10342 10348 10354 10365 10383 10393 10405 10423 10442 10460 10474 10490 10506 10522 10536 10556 10572 10586
10290 10295 10308 10330 10348 10363 10370 10385 10396 10402 10403 10406 10410 10409 10405 10401 10387 10371 10361 10354 10349 10345 10341 10338 10335 10337 10340 10345 10349 10352 10357 10374 10392 10409 10424 10445 10458 10470 10481 10497 10516 10535 10551 10566 10579
10276 10292 10304 10322 10337 10346 10359 10376 10386 10393 10397 10404 10406 10404 10404 10397 10383 10371 10360 10356 10350 10349 10349 10348 10344 10344 10349 10358 10367 10370 10374 10384 10395 10413 10432 10446 10460 10469 10486 10501 10519 10536 10551 10562 10572
10270 10286 10303 10316 10323 10336 10355 10367 10380 10386 10394 10400 10401 10399 10399 10393 10387 10378 10368 10362 10362 10361 10360 10359 10359 10361 10361 10372 10379 10387 10394 10402 10413 10426 10441 10454 10463 10475 10485 10506 10520 10534 10546 10557 10566
10269 10287 10297 10309 10319 10334 10349 10362 10372 10381 10390 10395 10399 10401 10402 10397 10389 10384 10381 10374 10373 10375 10377 10378 10381 10387 10386 10386 10398 10403 10409 10415 10425 10435 10445 10454 10464 10475 10486 10502 10518 10531 10541 10550 10558
10275 10282 10291 10303 10320 10331 10343 10356 10367 10378 10386 10390 10396 10398 10401 10400 10396 10391 10385 10382 10382 10382 10382 10386 10389 10394 10402 10406 10411 10416 10421 10427 10433 10439 10444 10455 10465 10477 10491 10504 10516 10528 10539 10547 10554
10273 10279 10291 10304 10317 10330 10343 10355 10365 10373 10380 10384 10389 10392 10398 10401 10399 10398 10394 10391 10390 10392 10397 10399 10399 10403 10410 10412 10416 10423 10428 10433 10439 10442 10449 10459 10472 10479 10492 10504 10516 10527 10536 10543 10550